Location: Most
(50.5330°N, 13.6500°E)
Time: 14:06:18
(UTC+01:00)

ISS - Visible Passes

Search period start: 11 December 2018 00:00
Search period end: 21 December 2018 00:00
Orbit: 401 x 408 km, 51.6° (Epoch: 12 December)

Date Brightness Start Highest point End Pass type
(mag) Time Alt. Az. Time Alt. Az. Time Alt. Az.
11 Dec -3.5 16:37:53 10° WNW 16:41:08 68° SSW 16:44:22 10° ESE visible
11 Dec -1.1 18:14:55 10° W 18:17:11 18° SW 18:19:27 10° S visible
12 Dec -1.7 17:22:21 10° W 17:25:11 27° SSW 17:28:00 10° SSE visible
14 Dec -0.7 17:14:58 10° WSW 17:16:56 15° SW 17:18:53 10° S visible
